Other Public Products
Issued by NWS Grand Forks, ND

Home | Current Version | Previous Version | Graphics & Text | Print | Product List | Glossary On
Versions: 1 2 3 4 5 6 7 8 9 10 11 12 13 14 15 16 17 18 19 20 21 22 23 24 25 26 27 28 29 30 31 32 33 34 35 36 37 38 39 40 41 42 43 44 45 46 47 48 49 50
000
FPUS83 KFGF 030810
OPUFGF
PRAIRIE TO PINES WEATHER ROUNDUP
NATIONAL WEATHER SERVICE EASTERN NORTH DAKOTA/GRAND FORKS ND
300 AM CDT SUN MAY 03 2015

 **SATELLITE DATA USED TO AUGMENT SKY COVER AT AUTOMATED STATIONS**
 *****  WEATHER ACROSS EASTERN NORTH DAKOTA  *****

CITY           SKY/WX    TMP DP  RH WIND       PRES   REMARKS
GRAND FORKS    FAIR      52  41  66 N13       29.65R
GRAND FORKS AF PTCLDY    52  40  65 N9        29.67R
GRAND CITY NWS   N/A     50 N/A N/A VRB10       N/A
BUXTON         NOT AVBL
DEVILS LAKE    CLEAR     46  36  66 NW13      29.72S
FARGO          CLEAR     54  47  77 S6        29.64R
WAHPETON ARPT  MOSUNNY   57  50  77 S10       29.66S
$$

 *****  WEATHER ACROSS CENTRAL AND WESTERN NORTH DAKOTA  *****

CITY           SKY/WX    TMP DP  RH WIND       PRES   REMARKS
JAMESTOWN      MOCLDY    53  38  56 N10       29.70R
BISMARCK       MOCLDY    57  37  47 N15G24    29.79R
MINOT          MOCLDY    49  36  61 W12       29.81R
MINOT AFB      MOCLDY    46  38  74 W8        29.80R
GARRISON         N/A     51  39  63 N13       29.82R
WILLISTON      CLOUDY    48  35  60 CALM      29.89R
DICKINSON      CLOUDY    52  36  54 N7        29.85R
HETTINGER      MOCLDY    54  34  46 NE16      29.84R
$$

 *****  OTHER OBSERVATIONS NORTHEAST NORTH DAKOTA  *****

CITY           SKY/WX    TMP DP  RH WIND       PRES   REMARKS
WALHALLA       FAIR      48  37  66 NW7       29.70S
LANGDON        FAIR      39  34  81 W9        29.72R
CAVALIER       FAIR      52  39  62 NW8       29.69R
GRAFTON        FAIR      50  41  71 NW12      29.69R
CANDO          PTSUNNY   43  34  70 NW8       29.75R
FORT TOTTEN      N/A     51  35  55 CALM      29.95S
ROLLA          NOT AVBL
RUGBY          NOT AVBL
 ***** THE ABOVE OBSERVATIONS ARE NON NWS ARE NOT QUALITY
        CONTROLLED AND MAY MIS-REPORT RAIN FOR SNOW...
$$

 *****  OTHER OBSERVATIONS SOUTHEAST NORTH DAKOTA *****

CITY           SKY/WX    TMP DP  RH WIND       PRES   REMARKS
COOPERSTOWN    NOT AVBL
VALLEY CITY    FAIR      50  41  71 NW9       29.68R
OAKES            N/A     54  41  62 NW9       29.67R
GWINNER        SUNNY     55  43  62 SW6       29.67S
SHEYENNE NWR     N/A     57  50  77 CALM      29.95S
BUFFALO        NOT AVBL
WYNDMERE       NOT AVBL
 ***** THE ABOVE OBSERVATIONS ARE NON NWS ARE NOT QUALITY
       CONTROLLED AND MAY MIS-REPORT RAIN FOR SNOW...
$$

  *****  WEATHER ACROSS NORTHERN MINNESOTA  *****

CITY           SKY/WX    TMP DP  RH WIND       PRES   REMARKS
FLAG ISLAND    CLEAR     54  48  82 NW12      29.61R
WARROAD        PTCLDY    55  45  67 NW7       29.63R
ROSEAU         PTCLDY    52  43  71 N3        29.64R
HALLOCK        CLEAR     50  39  66 N8        29.66R
THF RVR FALLS  PTCLDY    52  45  76 CALM      29.64R
HALSTAD        NOT AVBL
FOSSTON        NOT AVBL
BAUDETTE       CLEAR     51  43  74 CALM      29.62S
WASKISH        CLEAR     59  45  58 CALM      29.62R
CROOKSTON      PTCLDY    48  45  87 W7        29.65R
$$
  *****  WEATHER ACROSS CENTRAL AND WEST MINNESOTA  *****

CITY           SKY/WX    TMP DP  RH WIND       PRES   REMARKS
BEMIDJI        CLEAR     59  46  60 SW7       29.64R
PARK RAPIDS    PTCLDY    62  48  60 S14       29.66R
WADENA         MOCLDY    59  52  77 S9        29.68F
DETROIT LAKES  PTCLDY    61  52  72 SW9       29.67R
MOORHEAD       CLEAR     55  48  76 SW6       29.66R
FERGUS FALLS   MOCLDY    59  52  77 S7        29.68S
ELBOW LAKE     CLOUDY    60  53  79 S3        29.69F
MORRIS MN      CLOUDY    63  55  77 SE15      29.66F
STAPLES        CLOUDY    59  52  77 S13       29.70F
WHEATON        MOCLDY    57  54  88 S6        29.70S
$$
  *****  WEATHER ELSEWHERE ACROSS MINNESOTA  *****

CITY           SKY/WX    TMP DP  RH WIND       PRES   REMARKS
DULUTH         CLOUDY    55  43  63 S7        29.69S
INTRNTL FALLS  CLOUDY    58  45  62 CALM      29.62S
ELY            CLOUDY    59  39  47 S5        29.63F
CLOQUET        CLOUDY    54  41  62 CALM      29.68S
BRAINERD       LGT RAIN  61  51  70 W14G24    29.78R
HIBBING        CLOUDY    55  40  56 SE6       29.64F
ALEXANDRIA     CLOUDY    61  51  70 VRB6      29.74R
SAINT CLOUD    MOCLDY    62  53  72 S13       29.75R
MINNEAPOLIS    PTCLDY    62  51  67 S14       29.76F
$$

  *****  WEATHER ACROSS SOUTH DAKOTA  *****

CITY           SKY/WX    TMP DP  RH WIND       PRES   REMARKS
SIOUX FALLS    CLOUDY    62  54  74 S9        29.69F
BROOKINGS      MOCLDY    59  54  82 SE14      29.69F
WATERTOWN      PTCLDY    61  52  72 E8        29.70S
HURON          CLOUDY    63  54  72 E7        29.65F
SISSETON         N/A     60  52  74 S9        29.67F
ABERDEEN       PTCLDY    52  46  80 NE6       29.65S
MITCHELL       MOCLDY    60  55  83 CALM      29.69R
PIERRE         CLEAR     56  31  38 CALM      29.65F
MOBRIDGE       PTCLDY    47  34  60 N8        29.68R
RAPID CITY     MOCLDY    53  32  44 NW9       29.77S
$$

  *****  SOME WEATHER IN NEARBY STATES *****

CITY           SKY/WX    TMP DP  RH WIND       PRES   REMARKS
GLASGOW MT     MOCLDY    42  33  70 NW3       29.94R
GREAT FALLS MT MOCLDY    43  26  51 NE12      30.01R
CHEYENNE WY    CLOUDY    56  34  43 W17       29.93F
SCOTTSBLUFF NE CLOUDY    56  41  57 N3        29.81F
OMAHA NE       TSTM      61  59  93 SE7       29.83S
DES MOINES IA  LGT RAIN  61  52  72 S14       29.84S
DAVENPORT IA   MOCLDY    62  46  55 S10       29.93F
CHICAGO IL     MOCLDY    61  40  45 SW8       29.96F
EAU CLAIRE WI  CLEAR     61  48  62 S14       29.80F
LA CROSSE WI   CLEAR     61  52  72 S7        29.84F
$$

  *****  SOME NATIONAL WEATHER *****

CITY           SKY/WX    TMP DP  RH WIND       PRES   REMARKS
LA GUARDIA NY  PTCLDY    52  36  54 SW6       30.04S
RALEIGH NC     PTCLDY    49  47  93 CALM      30.11S
ATLANTA GA     CLEAR     57  48  72 CALM      30.09S
NEW ORLEANS LA MOCLDY    67  60  78 SE6       30.05S
OKLAHOMA CITY  MOCLDY    64  54  69 S13       29.92F
ALBUQUERQUE NM MOCLDY    56  35  45 SE3       30.05S
SALT LAKE CITY MOCLDY    62  40  44 S6        29.87S
LOS ANGELES CA PTCLDY    58  53  84 S5        29.90S
BOISE ID       CLEAR     54  34  46 SW3       29.83R
SEATTLE WA     CLEAR     50  38  63 N6        30.02R
$$

*** WEATHER ACROSS MANITOBA...SASKATCHEWAN AND ONTARIO ***
                ***ONTARIO***

CITY           SKY/WX    TMP DP  RH WIND       PRES   REMARKS
GERALDTON      MOCLDY    48  41  76 W6        29.72R
THUNDER BAY    MOCLDY    39  37  93 NE6       29.69F
SIOUX LOOKOUT  LGT RAIN  54  48  82 S6        29.60F
TORONTO        PTCLDY    55  39  54 NW3       30.00S
BIG TROUT LK   PTCLDY    45  43  93 NW10      29.44R
PICKLE LAKE    NOT AVBL
DRYDEN         CLOUDY    55  50  82 S9G17     29.59F
KENORA         PTCLDY    54  46  76 NW8       29.62R
$$
                *** MANITOBA***

CITY           SKY/WX    TMP DP  RH WIND       PRES   REMARKS
BRANDON        CLEAR     41  36  81 W10       29.74R
DAUPHIN        CLOUDY    45  43  93 SW7       29.70F
ISLAND LAKE    MOCLDY    41  39  93 W6        29.58S
PILOT MOUND      N/A     41  32  70 W5          N/A
THE PAS        MOCLDY    41  37  87 N5        29.65R
THOMPSON       CLOUDY    34  32  93 NE10G18   29.67R
WINNIPEG       CLEAR     37  32  81 N5        29.69R
LYNN LAKE      CLOUDY    30  28  93 N8        29.77R WCI  23
CHURCHILL      FLURRIES  23  21  93 N22       29.74S WCI   8
GILLAM         LGT SNOW  30  28  93 N14G20    29.64R WCI  20
$$
                ***SASKATCHEWAN***

CITY           SKY/WX    TMP DP  RH WIND       PRES   REMARKS
ESTEVAN        PTCLDY    39  36  87 W9        29.87R
KINDERSLEY     CLEAR     32  30  93 NW8       29.95R WCI  25
LLOYDMINSTER   CLEAR     34  32  93 NW9       29.92R
PRINCE ALBERT  PTCLDY    41  36  81 NW13      29.81R
REGINA         CLEAR     34  32  93 W12       29.87R



USA.gov is the U.S. government's official web portal to all federal, state and local government web resources and services.